This is the latest recevied weather packets stored in our database for station/object K5BOU. If no packets are shown the sender has not sent any weather packets the latest 10 day(s).
| Time | Temp. | Humidity | Pressure | Rain* | Wind** | Luminosity | Snow |
|---|---|---|---|---|---|---|---|
| 1788205232 | 35° C | 59% | 1013.4 hPa | 0 mm | - | 285 W/m² | - |
| 1788204928 | 35.56° C | 59% | 1013.3 hPa | 0 mm | - | 317 W/m² | - |
| 1788204623 | 36.11° C | 58% | 1013.4 hPa | 0 mm | - | 772 W/m² | - |
| 1788204317 | 35.56° C | 59% | 1013.3 hPa | 0 mm | - | 765 W/m² | - |
| 1788204013 | 35.56° C | 59% | 1013.4 hPa | 0 mm | - | 784 W/m² | - |
| 1788203703 | 35° C | 60% | 1013.5 hPa | 0 mm | - | 781 W/m² | - |
| 1788203399 | 35° C | 60% | 1013.8 hPa | 0 mm | - | 187 W/m² | - |
| 1788203112 | 35° C | 62% | 1013.6 hPa | 0 mm | - | 190 W/m² | - |
| 1788202792 | 33.89° C | 62% | 1013.6 hPa | 0 mm | - | 325 W/m² | - |
| 1788202489 | 35.56° C | 59% | 1013.9 hPa | 0 mm | - | 320 W/m² | - |
| 1788202189 | 36.11° C | 59% | 1014 hPa | 0 mm | - | 285 W/m² | - |
| 1788201883 | 36.11° C | 59% | 1014 hPa | 0 mm | - | 754 W/m² | - |
| 1788201579 | 35° C | 60% | 1014.1 hPa | 0 mm | - | 765 W/m² | - |
| 1788201278 | 36.11° C | 60% | 1013.8 hPa | 0 mm | - | 757 W/m² | - |
| 1788200978 | 35.56° C | 60% | 1014.2 hPa | 0 mm | - | 725 W/m² | - |
| 1788200673 | 35.56° C | 58% | 1014.1 hPa | 0 mm | - | 760 W/m² | - |
| 1788200368 | 35.56° C | 59% | 1014.3 hPa | 0 mm | - | 726 W/m² | - |
| 1788200064 | 35.56° C | 59% | 1014.3 hPa | 0 mm | - | 735 W/m² | - |
| 1788199764 | 35.56° C | 59% | 1014.4 hPa | 0 mm | - | 710 W/m² | - |
| 1788199458 | 35° C | 61% | 1014.6 hPa | 0 mm | - | 653 W/m² | - |
| 1788199158 | 35° C | 58% | 1014.7 hPa | 0 mm | - | 730 W/m² | - |
| 1788198854 | 35.56° C | 60% | 1014.7 hPa | 0 mm | - | 731 W/m² | - |
| 1788198550 | 35.56° C | 58% | 1014.7 hPa | 0 mm | - | 740 W/m² | - |
| 1788198245 | 34.44° C | 59% | 1014.7 hPa | 0 mm | - | 724 W/m² | - |
| 1788197944 | 34.44° C | 61% | 1014.8 hPa | 0 mm | - | 653 W/m² | - |
* Rain latest hour (hover to see other rain measurements)
** Current wind speed in m/s (hover to see current wind gust speed)